Regional Weather Roundup
Issued by NWS Goodland, KS

Home | Current Version | Previous Version | Text Only | Print | Product List | Glossary Off
Versions: 1 2 3 4 5 6 7 8 9 10 11 12 13 14 15 16 17 18 19 20 21 22 23 24 25 26 27 28 29 30 31 32 33 34 35 36 37 38 39 40 41 42 43 44 45 46 47 48 49 50

000
ASUS43 KGLD 201408
RWRGLD

GOODLAND FORECAST AREA HOURLY WEATHER ROUNDUP
NATIONAL WEATHER SERVICE GOODLAND KS
800 AM MDT SUN AUG 20 2017

...OFFICIAL OBSERVATIONS...

CITY           SKY/WX    TMP DP  RH WIND       PRES   REMARKS
GOODLAND KS    SUNNY     70  56  61 N6        29.96R
HILL CITY KS   SUNNY     78  66  66 SW13      29.91R
IMPERIAL NEB   SUNNY     69  60  73 N16       29.96R
MCCOOK NEB     SUNNY     69  60  73 SE3       29.90R
AKRON CO       CLOUDY    65  45  48 W10       30.05R
BURLINGTON CO  SUNNY     71  55  56 W8        30.00R
LIMON CO       CLOUDY    66  51  58 NW8       30.09R
$$

...UNOFFICIAL OBSERVATIONS...

CITY           SKY/WX    TMP DP  RH WIND       PRES   REMARKS
LENORA KS        N/A     74  32  21 CALM        N/A
NORTON KS      SUNNY     75  59  57 S3        29.91S
TRENTON NEB      N/A     72  32  23 CALM        N/A
KIT CARSON CO    N/A     72  55  54 CALM        N/A
$$




USA.gov is the U.S. government's official web portal to all federal, state and local government web resources and services.